Location: La Pernelle
(49.6188°N, 1.2999°W)
Time: 03:34:57
(UTC+00:00)

NOSS 3-2 (A) - Pass Details

Date: 19 October 2021
Orbit: 771 x 1437 km, 63.4° (Epoch: 21 November)

Event Time Altitude Azimuth Distance (km) Brightness Sun altitude
Rises 19:59:29 0° 309° (NW) 3,728 7.6 -28.5°
Reaches altitude 10° 20:02:14 10° 319° (NW) 2,875 6.7 -28.9°
Maximum altitude 20:08:26 34° 22° (NNE) 1,847 4.8 -29.9°
Enters shadow 20:09:20 33° 36° (NE) 1,900 4.8 -30.0°
